[[{"header":{"parameterUnit":"m.s-1","parameterCategory":1,"la1":30.2991,"la2":30.254,"lo1":-89.0895,"lo2":-89.0444,"dy":0.0017,"dx":0.0017,"nx":28,"ny":28,"refTime":"2025-04-16T09:00:00:Z","depth":0,"parameterNumber":2,"parameterNumberName":"U-component_of_WINDS"},"data":[0,0,0,0,0,0,0,0,0,0,0,0,0,0,0,0,0,0,0,0,0,0,0,0,0,0,0,0,0,0,0,0,0,0,0,0,0,0,0,0,0,0,0,0,0,0,0,0,0,0,0,0,0,0,0,0,0,0,-2.8081,-2.8082,0,-2.8152,-2.8153,-2.8154,-2.8057,-2.8053,-2.805,-2.8047,-2.8122,-2.8127,-2.8132,0,0,0,0,0,0,0,0,0,0,0,0,0,-2.7863,-2.7867,-2.8081,-2.8082,-2.8083,-2.8152,-2.8153,-2.8154,-2.8058,-2.8053,-2.8049,-2.8045,-2.812,-2.8126,-2.8133,0,0,0,0,0,0,0,0,0,0,0,0,0,-2.7948,-2.7869,-2.8081,-2.8043,-2.804,-2.8152,-2.8153,-2.8154,-2.8058,-2.8053,-2.8048,-2.8043,-2.8118,-2.8126,-2.8134,-2.8287,0,0,-2.8158,-2.8161,0,0,0,0,0,0,0,0,-2.7944,-2.7957,-2.8048,-2.8046,-2.8043,-2.809,-2.8104,-2.8199,-2.806,-2.8052,-2.8047,-2.8041,-2.8116,-2.8124,-2.8148,-2.829,-2.8294,-2.8158,-2.8163,-2.8167,-2.8169,0,0,0,0,0,0,0,-2.7938,-2.7953,-2.8109,-2.8049,-2.8046,-2.8023,-2.8029,-2.8121,-2.8112,-2.8052,-2.8045,-2.8055,-2.8114,-2.8141,-2.815,-2.8295,-2.8158,-2.8165,-2.817,-2.8173,-2.8566,-2.8572,0,0,0,0,0,0,-2.7936,-2.7949,-2.8107,-2.8111,-2.7979,-2.8031,-2.8038,-2.808,-2.8111,-2.8111,-2.8059,-2.805,-2.813,-2.814,-2.8152,-2.8334,-2.8167,-2.8174,-2.8178,-2.856,-2.8567,-2.8574,0,0,0,0,0,0,-2.7932,-2.7951,-2.8104,-2.8028,-2.8046,-2.804,-2.8089,-2.8085,-2.8112,-2.8116,-2.8114,-2.8089,-2.8127,-2.8141,-2.8254,-2.8335,-2.8177,-2.8185,-2.8554,-2.8563,-2.857,-2.87,0,0,0,0,0,0,-2.7926,-2.795,-2.8008,-2.803,-2.805,-2.8205,-2.8094,-2.809,-2.8126,-2.8114,-2.8144,-2.8144,-2.8124,-2.8243,-2.8262,-2.8343,-2.8191,-2.8546,-2.8558,-2.8568,-2.8688,-2.8712,-2.8732,0,0,0,0,0,-2.7919,-2.8042,-2.8012,-2.8032,-2.8123,-2.821,-2.8222,-2.8195,-2.8133,-2.8191,-2.8194,-2.8143,-2.8323,-2.8255,-2.8276,-2.8361,-2.8541,-2.8554,-2.8567,-2.8679,-2.8707,-2.8731,0,0,0,0,0,0,-2.8031,-2.8045,-2.8011,-2.8145,-2.8177,-2.8194,-2.8267,-2.8226,-2.8277,-2.8265,-2.823,-2.8238,-2.8359,-2.8371,-2.8295,-2.8511,-2.8422,-2.8439,-2.85,-2.8527,-2.8548,-2.8544,-2.8197,0,0,0,0,0,-2.8072,-2.8141,-2.8149,-2.8267,-2.8284,-2.8273,-2.831,-2.8287,-2.8319,-2.8332,-2.8343,-2.8377,-2.844,-2.8484,-2.8543,-2.8688,-2.8694,-2.8757,-2.8779,-2.8797,-2.8813,-2.8892,-2.892,-2.8616,-2.8616,-2.8615,0,0,-2.8156,-2.8172,-2.8218,-2.829,-2.8312,-2.8385,-2.8285,-2.8367,-2.8421,-2.8345,-2.8453,-2.8462,-2.8497,-2.8627,-2.8685,-2.8641,-2.8898,-2.8813,-2.8827,-2.8834,-2.8908,-2.8937,-2.8963,-2.8624,-2.8623,-2.8622,0,0,-2.8348,-2.8366,-2.8467,-2.8491,-2.8525,-2.8516,-2.854,-2.8563,-2.8566,-2.8673,-2.8617,-2.8681,-2.8792,-2.8819,-2.8848,-2.9049,-2.9004,-2.9069,-2.9184,-2.9261,-2.9285,-2.9306,-2.9379,-2.9406,-2.9084,-2.9085,-2.9085,0,-2.8449,-2.8557,-2.8524,-2.861,-2.8643,-2.8576,-2.8678,-2.8703,-2.8755,-2.878,-2.8729,-2.8866,-2.8885,-2.9022,-2.907,-2.9095,-2.9123,-2.9067,-2.9284,-2.9305,-2.9324,-2.9394,-2.9421,-2.9093,-2.9092,-2.9091,-2.909,0,-2.8681,-2.8756,-2.8833,-2.8885,-2.8926,-2.902,-2.9002,-2.9048,-2.902,-2.9017,-2.9128,-2.9147,-2.921,-2.9239,-2.9214,-2.9373,-2.9344,-2.9289,-2.9199,-2.9361,-2.9426,-2.9453,-2.9104,-2.9101,-2.9099,-2.9097,0,0,-2.8948,-2.8979,-2.9008,-2.9031,-2.9063,-2.9121,-2.9211,-2.9271,-2.9312,-2.935,-2.9426,-2.952,-2.9469,-2.9502,-2.9478,-2.9545,-2.9705,-2.9482,-2.9482,-2.9525,-2.9883,-2.9926,-2.9958,-2.9674,-2.9679,-2.9683,-2.9881,0,-2.9142,-2.9298,-2.927,-2.9422,-2.9492,-2.9428,-2.9506,-2.9535,-2.9534,-2.9594,-2.9592,-2.9661,-2.9587,-2.9606,-2.967,-2.9672,-2.9777,-2.9657,-2.9746,-2.975,-2.9742,-2.9991,-3.0037,-3.0223,-2.9905,-2.991,-2.9913,0,-2.9389,-2.9435,-2.9594,-2.9615,-2.9643,-2.9715,-2.9767,-2.9824,-2.9855,-2.985,-2.9886,-2.9849,-2.9939,-2.9846,-2.9971,-2.989,-2.9924,-2.9931,-2.9937,-2.9947,-2.9843,-3.001,-3.0281,-3.031,-2.9952,-2.9949,-2.9946,0,-2.9571,-2.9673,-2.9781,-2.9802,-2.9829,-2.988,-2.9894,-2.9919,-2.9957,-3.0003,-3.0027,-3.0083,-3.0114,-3.0159,-3.0138,-3.0072,-3.0268,-3.0172,-3.0267,-3.0268,-3.0314,-3.0312,-3.0597,-3.0332,-3.0331,-3.0331,-3.033,0,-2.9792,-2.9892,-2.9863,-2.9931,-3.0041,-3.0008,-3.0118,-3.0124,-3.0147,-3.0214,-3.0161,-3.0226,-3.0194,-3.0256,-3.024,-3.0347,-3.0361,-3.036,-3.0355,-3.0367,-3.0367,-3.0391,-3.0378,-3.0338,-3.0337,-3.0335,-3.0334,0,-3.0015,-3.0,-3.0114,-3.0129,-3.0135,-3.0216,-3.0229,-3.0292,-3.0286,-3.0372,-3.039,-3.0381,-3.0452,-3.0435,-3.0512,-3.0502,-3.0637,-3.0614,-3.0627,-3.0622,-3.0719,-3.0711,-3.1032,-3.1073,-3.0779,-3.0782,-3.0784,0,-3.0158,-3.0234,-3.0257,-3.0298,-3.0315,-3.0382,-3.042,-3.0389,-3.0431,-3.0471,-3.053,-3.0595,-3.0646,-3.0762,-3.0763,-3.0821,-3.0802,-3.091,-3.081,-3.0819,-3.0806,-3.0803,-3.0811,-3.0931,-3.0934,-3.0937,-3.0939,0,-3.0415,-3.0403,-3.046,-3.0514,-3.0561,-3.0602,-3.0638,-3.0675,-3.0646,-3.0696,-3.0767,-3.0807,-3.0885,-3.0951,-3.1005,-3.1019,-3.0976,-3.097,-3.0995,-3.1009,-3.1014,-3.1015,-3.0683,-3.0963,-3.0961,-3.0959,-3.0958,-3.0957,-3.0604,-3.0669,-3.0695,-3.076,-3.0783,-3.0818,-3.0878,-3.0879,-3.0938,-3.0999,-3.0976,-3.1058,-3.1086,-3.1154,-3.1174,-3.1238,-3.1197,-3.1234,-3.1244,-3.1254,-3.1267,-3.1001,-3.1247,-3.1247,-3.1246,-3.1245,-3.1245,0,-3.086,-3.0873,-3.0933,-3.0985,-3.1036,-3.0988,-3.1025,-3.1072,-3.1144,-3.1173,-3.1224,-3.1306,-3.137,-3.1375,-3.1434,-3.1485,-3.1466,-3.1502,-3.1499,-3.1503,-3.1299,-3.1272,-3.1516,-3.1516,-3.1516,-3.1516,-3.1515,-3.1515,-3.0999,-3.1107,-3.1098,-3.1216,-3.1228,-3.1307,-3.1333,-3.1365,-3.1388,-3.1482,-3.1534,-3.1536,-3.1556,-3.1617,-3.1673,-3.1673,-3.1699,-3.1742,-3.1735,-3.1545,-3.1518,-3.1492,-3.1467,-3.1748,-3.1748,-3.1935,-3.1936,-3.1938]},{"header":{"parameterUnit":"m.s-1","parameterCategory":1,"la1":30.2991,"la2":30.254,"lo1":-89.0895,"lo2":-89.0444,"dy":0.0017,"dx":0.0017,"nx":28,"ny":28,"refTime":"2025-04-16T09:00:00:Z","depth":0,"parameterNumber":3,"parameterNumberName":"V-component_of_WINDS"},"data":[0,0,0,0,0,0,0,0,0,0,0,0,0,0,0,0,0,0,0,0,0,0,0,0,0,0,0,0,0,0,0,0,0,0,0,0,0,0,0,0,0,0,0,0,0,0,0,0,0,0,0,0,0,0,0,0,0,0,-4.819,-4.8191,0,-4.828,-4.8281,-4.8282,-4.8218,-4.8215,-4.8213,-4.821,-4.8296,-4.8301,-4.8306,0,0,0,0,0,0,0,0,0,0,0,0,0,-4.7958,-4.7963,-4.819,-4.8191,-4.8193,-4.828,-4.8281,-4.8282,-4.8219,-4.8215,-4.8212,-4.8209,-4.8295,-4.8301,-4.8307,0,0,0,0,0,0,0,0,0,0,0,0,0,-4.8054,-4.7964,-4.819,-4.8171,-4.8171,-4.828,-4.8281,-4.8283,-4.8219,-4.8215,-4.8211,-4.8207,-4.8293,-4.83,-4.8307,-4.8438,0,0,-4.833,-4.8333,0,0,0,0,0,0,0,0,-4.8049,-4.8063,-4.8173,-4.8173,-4.8172,-4.8234,-4.8231,-4.8334,-4.8221,-4.8201,-4.821,-4.8205,-4.8279,-4.8287,-4.8313,-4.8442,-4.8445,-4.8331,-4.8335,-4.8338,-4.834,0,0,0,0,0,0,0,-4.8042,-4.8059,-4.8225,-4.8175,-4.8174,-4.8157,-4.8166,-4.825,-4.8262,-4.8202,-4.8198,-4.821,-4.8277,-4.8306,-4.8314,-4.8447,-4.833,-4.8337,-4.8342,-4.8344,-4.8686,-4.869,0,0,0,0,0,0,-4.8038,-4.8054,-4.8223,-4.8228,-4.8099,-4.8164,-4.8174,-4.8218,-4.8261,-4.8264,-4.8213,-4.8206,-4.8295,-4.8306,-4.8317,-4.8472,-4.8338,-4.8345,-4.8349,-4.8681,-4.8687,-4.8692,0,0,0,0,0,0,-4.8034,-4.8054,-4.8219,-4.814,-4.816,-4.8173,-4.8223,-4.8222,-4.8251,-4.8269,-4.8271,-4.824,-4.8292,-4.8307,-4.8408,-4.8474,-4.8348,-4.8355,-4.8676,-4.8683,-4.8689,-4.8784,0,0,0,0,0,0,-4.8027,-4.8053,-4.8104,-4.8142,-4.8164,-4.8311,-4.8227,-4.8227,-4.8264,-4.8256,-4.8295,-4.8298,-4.829,-4.8398,-4.8416,-4.8482,-4.8361,-4.867,-4.8679,-4.8687,-4.8775,-4.8793,-4.8809,0,0,0,0,0,-4.8019,-4.8126,-4.8107,-4.8127,-4.8229,-4.8315,-4.8327,-4.8318,-4.827,-4.832,-4.8332,-4.8296,-4.8464,-4.8409,-4.8428,-4.8498,-4.8666,-4.8676,-4.8687,-4.8767,-4.879,-4.8808,0,0,0,0,0,0,-4.8093,-4.813,-4.811,-4.8232,-4.8271,-4.8304,-4.8367,-4.8342,-4.8394,-4.8384,-4.8369,-4.8378,-4.8485,-4.8501,-4.8439,-4.8626,-4.8557,-4.8572,-4.8612,-4.8633,-4.865,-4.8643,-4.8367,0,0,0,0,0,-4.8124,-4.8193,-4.8221,-4.8326,-4.8347,-4.8354,-4.8391,-4.8381,-4.842,-4.8435,-4.8455,-4.8493,-4.8553,-4.8594,-4.8651,-4.8777,-4.8784,-4.8834,-4.8851,-4.8865,-4.8878,-4.8945,-4.8967,-4.8726,-4.8726,-4.8726,0,0,-4.8188,-4.8217,-4.8261,-4.8342,-4.8371,-4.8441,-4.8368,-4.8445,-4.8496,-4.8446,-4.8544,-4.856,-4.86,-4.8715,-4.8766,-4.8732,-4.8946,-4.8878,-4.8889,-4.8895,-4.8958,-4.8981,-4.9001,-4.8733,-4.8732,-4.8731,0,0,-4.8341,-4.837,-4.8461,-4.8492,-4.8537,-4.8541,-4.8563,-4.86,-4.8609,-4.8707,-4.8671,-4.873,-4.8836,-4.8867,-4.8896,-4.906,-4.9029,-4.9079,-4.9167,-4.9233,-4.9252,-4.9268,-4.9326,-4.9347,-4.9092,-4.9092,-4.9092,0,-4.8414,-4.852,-4.851,-4.859,-4.8626,-4.8586,-4.8677,-4.8706,-4.8767,-4.8792,-4.8754,-4.8886,-4.891,-4.9031,-4.9071,-4.9096,-4.9119,-4.9074,-4.925,-4.9267,-4.9282,-4.9337,-4.9359,-4.9098,-4.9097,-4.9096,-4.9096,0,-4.8607,-4.8681,-4.8749,-4.8811,-4.8854,-4.8939,-4.894,-4.8985,-4.8971,-4.8979,-4.9078,-4.9106,-4.9169,-4.9196,-4.9183,-4.9315,-4.9292,-4.9252,-4.9182,-4.9311,-4.9362,-4.9383,-4.9106,-4.9104,-4.9102,-4.9101,0,0,-4.8809,-4.8865,-4.889,-4.8917,-4.8965,-4.902,-4.9103,-4.9165,-4.9204,-4.9247,-4.9315,-4.9405,-4.9369,-4.9402,-4.9391,-4.9449,-4.9576,-4.9401,-4.9402,-4.9432,-4.9722,-4.9752,-4.9777,-4.9556,-4.9559,-4.9563,-4.9719,0,-4.8963,-4.911,-4.9103,-4.9239,-4.9306,-4.9269,-4.934,-4.9376,-4.9385,-4.9442,-4.9451,-4.9515,-4.9463,-4.9482,-4.9538,-4.9549,-4.9634,-4.9537,-4.9617,-4.962,-4.9608,-4.9804,-4.9835,-4.9981,-4.9739,-4.9742,-4.9745,0,-4.9163,-4.9216,-4.9359,-4.9396,-4.9424,-4.9489,-4.9545,-4.9601,-4.964,-4.9642,-4.968,-4.966,-4.9741,-4.967,-4.9781,-4.9715,-4.9747,-4.9758,-4.9763,-4.977,-4.969,-4.9815,-5.0028,-5.005,-4.9776,-4.9774,-4.9771,0,-4.9296,-4.9401,-4.9501,-4.9525,-4.9571,-4.9618,-4.9638,-4.9673,-4.9711,-4.976,-4.9784,-4.9841,-4.9872,-4.9916,-4.9911,-4.9859,-5.0024,-4.9952,-5.0026,-5.0027,-5.0062,-5.006,-5.0283,-5.0084,-5.0084,-5.0083,-5.0083,0,-4.9469,-4.9558,-4.9561,-4.9622,-4.972,-4.971,-4.9807,-4.9822,-4.9854,-4.9916,-4.9886,-4.9945,-4.9935,-4.9992,-4.9989,-5.0081,-5.0095,-5.0098,-5.0096,-5.0101,-5.01,-5.0121,-5.0111,-5.0089,-5.0088,-5.0087,-5.0086,0,-4.9633,-4.9639,-4.9745,-4.978,-4.9791,-4.9861,-4.989,-4.9947,-4.9954,-5.0032,-5.005,-5.006,-5.0127,-5.0126,-5.0202,-5.0199,-5.0312,-5.0298,-5.03,-5.0297,-5.0371,-5.0364,-5.0615,-5.0647,-5.0427,-5.043,-5.0431,0,-4.9743,-4.9811,-4.9854,-4.9894,-4.9919,-4.9984,-5.0023,-5.0015,-5.0057,-5.0107,-5.0157,-5.0221,-5.0272,-5.038,-5.0393,-5.045,-5.0437,-5.0521,-5.0445,-5.0448,-5.0438,-5.0434,-5.044,-5.0536,-5.0538,-5.054,-5.0542,0,-4.9938,-4.9937,-4.9996,-5.0056,-5.0104,-5.015,-5.0192,-5.0226,-5.0223,-5.0271,-5.034,-5.038,-5.0458,-5.0521,-5.0576,-5.0595,-5.0568,-5.0566,-5.0586,-5.0591,-5.0589,-5.0591,-5.034,-5.056,-5.0558,-5.0557,-5.0556,-5.0555,-5.0078,-5.0136,-5.0176,-5.0242,-5.0273,-5.0314,-5.0369,-5.0383,-5.0441,-5.0505,-5.0497,-5.0573,-5.0609,-5.0681,-5.0705,-5.0763,-5.0734,-5.0763,-5.077,-5.0778,-5.0786,-5.058,-5.0773,-5.0773,-5.0772,-5.0772,-5.0771,0,-5.027,-5.0294,-5.0355,-5.0416,-5.0468,-5.044,-5.0485,-5.0529,-5.0598,-5.0635,-5.0686,-5.0765,-5.0826,-5.0844,-5.0903,-5.0946,-5.0935,-5.0962,-5.0958,-5.0963,-5.0809,-5.0786,-5.097,-5.097,-5.097,-5.097,-5.097,-5.097,-5.0377,-5.0474,-5.0478,-5.059,-5.0613,-5.0689,-5.0718,-5.0754,-5.0784,-5.0873,-5.0925,-5.0937,-5.0966,-5.1027,-5.1081,-5.1085,-5.1108,-5.114,-5.1138,-5.0994,-5.0974,-5.0955,-5.0933,-5.1145,-5.1145,-5.1287,-5.1288,-5.1289]}]]